FW8456 Weather Reports


time (UTC)temp
F
wind
direction
speed
knots
gust
knots
rain 1hr
in
rain 24hr
in
rain mn
in
humidity
%
barometer
mb
20260507154105 57 225 5.2 14.8 0.00 0.00 0.00 34 1011.9
20260507153554 58 225 6.1 14.8 0.00 0.00 0.00 35 1012.3
20260507153049 57 248 3.5 13.9 0.00 0.00 0.00 36 1012.3
20260507152025 57 203 8.7 15.6 0.00 0.00 0.00 37 1012.2
20260507151514 56 203 4.3 15.6 0.00 0.00 0.00 37 1012.4
20260507151004 56 225 6.1 18.2 0.00 0.00 0.00 36 1012.4
20260507150454 55 225 10.4 18.2 0.00 0.00 0.00 37 1012.1
20260507145944 55 225 4.3 17.4 0.00 0.00 0.00 38 1012.2
20260507145433 56 225 3.5 18.2 0.00 0.00 0.00 37 1012.2
20260507144924 56 225 7.0 18.2 0.00 0.00 0.00 38 1012.4
20260507144413 55 203 6.1 18.2 0.00 0.00 0.00 38 1012.4
20260507143903 55 248 3.5 17.4 0.00 0.00 0.00 39 1012.4
20260507142844 54 225 7.0 14.8 0.00 0.00 0.00 38 1012.3
20260507141313 54 225 7.8 20.9 0.00 0.00 0.00 38 1011.8
20260507140805 54 293 7.0 19.1 0.00 0.00 0.00 39 1011.7
20260507140252 54 248 6.1 19.1 0.00 0.00 0.00 41 1011.7
20260507135744 54 225 11.3 20.0 0.00 0.00 0.00 41 1011.8
20260507135232 54 225 5.2 20.0 0.00 0.00 0.00 41 1012.4
20260507134723 54 225 6.1 14.8 0.00 0.00 0.00 43 1012.3
20260507134217 53 225 9.6 13.0 0.00 0.00 0.00 45 1012.3
20260507133702 52 225 3.5 9.6 0.00 0.00 0.00 45 1012.1
20260507133152 52 225 4.3 12.2 0.00 0.00 0.00 46 1012.1
20260507132642 52 248 5.2 12.2 0.00 0.00 0.00 47 1012.2
20260507131622 52 248 3.5 12.2 0.00 0.00 0.00 48 1012.2
20260507131112 51 225 3.5 9.6 0.00 0.00 0.00 49 1012.0
20260507130602 51 225 4.3 9.6 0.00 0.00 0.00 49 1012.4
20260507130051 50 203 6.1 9.6 0.00 0.00 0.00 49 1012.6
20260507125541 50 248 0.9 7.0 0.00 0.00 0.00 51 1012.4
20260507125032 49 225 0.9 9.6 0.00 0.00 0.00 50 1012.5
20260507124011 50 203 3.5 7.8 0.00 0.00 0.00 51 1012.6
20260507123501 50 225 0.9 6.1 0.00 0.00 0.00 51 1012.4
20260507122440 50 270 1.7 7.8 0.00 0.00 0.00 51 1012.3
20260507121931 50 248 1.7 7.0 0.00 0.00 0.00 50 1012.2
20260507120400 49 203 1.7 9.6 0.00 0.00 0.00 52 1011.8
20260507115850 50 270 3.5 13.9 0.00 0.00 0.00 50 1011.7
20260507115340 50 225 5.2 13.9 0.00 0.00 0.00 50 1011.3
20260507114320 50 248 3.5 9.6 0.00 0.00 0.00 50 1011.1
20260507113810 50 225 3.5 9.6 0.00 0.00 0.00 50 1010.9
20260507112749 50 248 0.9 9.6 0.00 0.00 0.00 51 1010.7
20260507112239 50 203 4.3 9.6 0.00 0.00 0.00 49 1010.7
20260507110709 50 225 6.1 9.6 0.00 0.00 0.00 51 1010.8
20260507110159 51 203 3.5 12.2 0.00 0.00 0.00 50 1011.0
20260507105649 51 225 3.5 12.2 0.00 0.00 0.00 50 1010.4
20260507105139 51 203 1.7 7.8 0.00 0.00 0.00 50 1010.3
20260507104628 51 248 0.9 7.0 0.00 0.00 0.00 50 1010.4
20260507104118 52 270 1.7 9.6 0.00 0.00 0.00 49 1010.4
20260507103608 52 203 0.0 9.6 0.00 0.00 0.00 50 1010.9
20260507103058 52 225 2.6 9.6 0.00 0.00 0.00 49 1010.8
20260507102555 52 203 1.7 9.6 0.00 0.00 0.00 50 1011.0
20260507101017 53 203 0.0 7.0 0.00 0.00 0.00 52 1011.2
20260507100508 53 225 0.9 5.2 0.00 0.00 0.00 51 1011.5
20260507095448 53 180 0.0 3.5 0.00 0.00 0.00 53 1010.9
20260507094937 54 225 0.0 5.2 0.00 0.00 0.00 52 1010.9
20260507094425 54 180 0.0 5.2 0.00 0.00 0.00 52 1011.5
20260507093917 54 270 1.7 7.0 0.00 0.00 0.00 51 1011.2
20260507093406 54 225 0.0 7.0 0.00 0.00 0.00 51 1010.9
20260507092857 55 225 3.5 6.1 0.00 0.00 0.00 51 1011.2
20260507092346 55 225 0.0 5.2 0.00 0.00 0.00 51 1011.0
20260507091836 54 270 0.9 5.2 0.00 0.00 0.00 53 1010.8
20260507090817 54 270 0.0 5.2 0.00 0.00 0.00 53 1010.2
20260507090306 55 225 0.0 5.2 0.00 0.00 0.00 52 1009.7
20260507085756 55 225 0.0 5.2 0.00 0.00 0.00 51 1009.8
20260507085247 55 225 0.0 7.8 0.00 0.00 0.00 51 1010.3
20260507084736 55 225 0.0 7.8 0.00 0.00 0.00 50 1010.4
20260507084226 55 203 0.0 6.1 0.00 0.00 0.00 52 1009.9
20260507083715 55 180 0.0 6.1 0.00 0.00 0.00 50 1010.2
20260507083206 55 180 0.9 5.2 0.00 0.00 0.00 51 1010.2
20260507082655 55 225 0.0 3.5 0.00 0.00 0.00 51 1010.4
20260507082145 55 203 0.0 3.5 0.00 0.00 0.00 53 1009.9
20260507081635 55 225 0.0 0.0 0.00 0.00 0.00 55 1009.6
20260507081125 55 203 0.0 0.0 0.00 0.00 0.00 54 1009.8
20260507080614 55 225 0.0 3.5 0.00 0.00 0.00 53 1009.6
20260507080110 55 158 0.0 3.5 0.00 0.00 0.00 54 1009.8
20260507075554 55 248 0.0 1.7 0.00 0.00 0.00 54 1010.1
20260507075044 55 203 0.0 7.8 0.00 0.00 0.00 54 1009.9
20260507074024 56 203 3.5 9.6 0.00 0.00 0.00 53 1010.4
20260507073515 56 225 2.6 9.6 0.00 0.00 0.00 54 1010.8
20260507073004 56 225 1.7 13.0 0.00 0.00 0.00 57 1010.7
20260507072454 56 203 3.5 13.0 0.00 0.00 0.00 55 1010.3
20260507071943 56 203 5.2 9.6 0.00 0.00 0.00 58 1010.4
20260507070923 56 225 0.9 7.0 0.00 0.00 0.00 58 1010.3
20260507070413 56 225 1.7 7.0 0.00 0.00 0.00 60 1010.1
20260507065904 56 225 3.5 9.6 0.00 0.00 0.00 60 1010.4
20260507065353 56 248 3.5 9.6 0.00 0.00 0.00 60 1010.5
20260507064843 57 180 3.5 7.8 0.00 0.00 0.00 59 1010.4
20260507064335 57 203 5.2 9.6 0.00 0.00 0.00 59 1010.4
20260507063823 57 225 5.2 9.6 0.00 0.00 0.00 59 1010.5
20260507063312 57 248 1.7 0.0 0.00 0.00 0.00 61 1011.2
20260507062341 57 180 5.2 9.6 0.00 0.00 0.00 60 1010.8
20260507061831 58 203 3.5 9.6 0.00 0.00 0.00 60 1010.5
20260507061322 58 225 3.5 9.6 0.00 0.00 0.00 59 1010.7
20260507060812 58 203 5.2 9.6 0.00 0.00 0.00 59 1010.9
20260507060302 58 225 3.5 9.6 0.00 0.00 0.00 60 1011.0
20260507055751 58 225 1.7 9.6 0.00 0.00 0.00 59 1010.8
20260507055241 58 203 3.5 7.8 0.00 0.00 0.00 59 1010.9
20260507054730 58 203 3.5 7.8 0.00 0.00 0.00 60 1010.8
20260507054221 58 225 0.0 6.1 0.00 0.00 0.00 61 1010.5
20260507053711 59 225 1.7 7.8 0.00 0.00 0.00 61 1010.8
20260507053201 59 225 0.0 7.8 0.00 0.00 0.00 61 1010.5
20260507052651 59 203 0.0 7.0 0.00 0.00 0.00 61 1010.5
20260507051631 59 225 0.0 6.1 0.00 0.00 0.00 63 1010.5
20260507051121 59 248 0.9 7.8 0.00 0.00 0.00 62 1010.2
20260507050609 59 225 1.7 7.8 0.00 0.00 0.00 62 1010.3
20260507050109 59 225 0.0 7.8 0.00 0.00 0.00 65 1010.1
20260507045549 59 248 0.0 7.8 0.00 0.00 0.00 64 1010.2
20260507045040 59 225 0.0 6.1 0.00 0.00 0.00 65 1009.7
20260507044019 60 225 1.7 5.2 0.00 0.00 0.00 64 1009.9
20260507042959 60 225 0.9 6.1 0.00 0.00 0.00 68 1009.5
20260507042450 60 225 1.7 3.5 0.00 0.00 0.00 70 1009.3
20260507041939 60 180 0.0 3.5 0.00 0.00 0.00 71 1009.2
20260507041428 60 158 0.0 3.5 0.00 0.00 0.00 72 1009.4
20260507040919 60 225 0.0 3.5 0.00 0.00 0.00 72 1009.1
20260507040408 60 203 0.0 1.7 0.00 0.00 0.00 72 1009.2
20260507035900 60 225 0.0 3.5 0.00 0.00 0.00 72 1009.1
20260507035348 60 225 0.0 3.5 0.00 0.00 0.00 72 1009.2
20260507034839 60 203 0.0 1.7 0.00 0.00 0.00 72 1009.3
20260507034328 60 270 0.0 5.2 0.00 0.00 0.00 72 1009.1
20260507033818 61 203 0.0 5.2 0.00 0.00 0.00 72 1008.8
20260507033308 61 293 0.0 1.7 0.00 0.00 0.00 73 1008.8
20260507032758 61 225 0.0 1.7 0.00 0.00 0.00 72 1008.9
20260507032247 61 248 0.0 3.5 0.00 0.00 0.00 72 1008.6
20260507031738 61 203 0.0 3.5 0.00 0.00 0.00 73 1008.7
20260507031227 62 225 0.9 3.5 0.00 0.00 0.00 72 1008.4
20260507030207 62 180 0.9 5.2 0.00 0.00 0.00 72 1008.7
20260507025701 62 248 0.0 5.2 0.00 0.00 0.00 71 1008.2
20260507025148 62 203 0.0 3.5 0.00 0.00 0.00 70 1008.3
20260507024637 62 203 0.0 3.5 0.00 0.00 0.00 69 1008.4
20260507024127 63 270 0.0 1.7 0.00 0.00 0.00 68 1008.4
20260507023106 63 293 0.0 3.5 0.00 0.00 0.00 69 1008.3
20260507022557 63 225 0.0 3.5 0.00 0.00 0.00 68 1008.3
20260507022046 63 225 0.0 3.5 0.00 0.00 0.00 69 1008.2
20260507021536 64 225 0.0 3.5 0.00 0.00 0.00 70 1008.4
20260507021026 64 248 0.9 3.5 0.00 0.00 0.00 68 1008.6
20260507020516 64 248 0.0 3.5 0.00 0.00 0.00 69 1008.6
20260507020012 65 248 0.0 3.5 0.00 0.00 0.00 69 1008.3
20260507015456 65 248 0.0 1.7 0.00 0.00 0.00 69 1008.0
20260507014946 65 180 0.0 3.5 0.00 0.00 0.00 71 1008.1
20260507014435 65 293 0.0 3.5 0.00 0.00 0.00 72 1008.1
20260507013925 65 203 1.7 6.1 0.00 0.00 0.00 73 1007.6
20260507013415 66 203 0.0 6.1 0.00 0.00 0.00 73 1008.0
20260507012906 66 225 0.0 5.2 0.00 0.00 0.00 73 1007.9
20260507012355 66 293 0.0 0.0 0.00 0.00 0.00 76 1007.8
20260507011845 66 225 0.0 0.0 0.00 0.00 0.00 76 1006.7
20260507011335 66 225 0.0 0.0 0.00 0.00 0.00 77 1007.2
20260507010314 66 315 0.0 0.0 0.00 0.00 0.00 76 1007.4
20260507005805 66 338 0.0 0.0 0.00 0.00 0.00 76 1007.4
20260507004745 67 180 0.0 0.0 0.00 0.00 0.00 75 1007.5
20260507003724 66 225 0.0 0.0 0.00 0.00 0.00 76 1007.5
20260507003213 66 158 0.0 0.0 0.00 0.00 0.00 76 1007.4
20260507002705 67 225 0.0 0.0 0.00 0.00 0.00 76 1007.2
20260507001644 67 225 0.0 0.0 0.00 0.00 0.00 76 1007.5
20260507001133 67 338 0.0 0.0 0.00 0.00 0.00 76 1007.2
20260507000624 67 225 0.0 0.0 0.00 0.00 0.00 75 1007.6
20260506235604 67 270 0.0 0.0 0.00 0.00 0.00 77 1007.5
20260506234033 67 315 0.0 0.0 0.00 0.00 0.00 78 1006.8
20260506233013 67 315 0.0 0.0 0.00 0.00 0.00 77 1007.0
20260506232503 67 315 0.0 0.0 0.00 0.00 0.00 77 1006.9
20260506231952 67 315 0.0 0.0 0.00 0.00 0.00 77 1006.8
20260506231442 68 270 0.0 0.0 0.00 0.00 0.00 75 1006.6
20260506230422 69 248 0.0 1.7 0.00 0.00 0.00 74 1006.5
20260506225912 69 248 0.0 3.5 0.00 0.00 0.00 73 1006.2
20260506225403 69 225 0.0 3.5 0.00 0.00 0.00 72 1006.1
20260506224851 69 203 0.0 3.5 0.00 0.00 0.00 72 1006.2
20260506224342 69 225 0.0 3.5 0.00 0.00 0.00 73 1005.9
20260506223832 69 203 0.0 3.5 0.00 0.00 0.00 72 1005.6
20260506223321 69 248 0.0 0.0 0.00 0.00 0.00 72 1005.5
20260506222811 69 248 0.0 0.0 0.00 0.00 0.00 72 1005.2
20260506220732 72 270 0.0 0.0 0.00 0.00 0.00 65 1004.8
20260506220222 73 225 0.0 0.0 0.00 0.00 0.00 64 1004.6
20260506215710 72 248 0.0 0.0 0.00 0.00 0.00 65 1004.5
20260506215200 71 293 0.0 0.0 0.00 0.00 0.00 72 1004.6
20260506214651 72 293 0.0 0.0 0.00 0.00 0.00 71 1004.6
20260506214140 69 248 0.0 0.0 0.00 0.00 0.00 75 1004.6
20260506212609 72 90 0.0 0.0 0.00 0.00 0.00 73 1004.0
20260506212100 72 23 0.0 0.0 0.00 0.00 0.00 72 1004.0
20260506211550 73 338 0.0 0.0 0.00 0.00 0.00 73 1003.7
20260506211039 73 0 0.0 0.0 0.00 0.00 0.00 72 1003.9
20260506210536 74 0 0.0 0.0 0.00 0.00 0.00 70 1003.7
20260506210020 75 315 0.0 0.0 0.00 0.00 0.00 70 1003.8
20260506205510 75 0 0.0 0.0 0.00 0.00 0.00 69 1003.7
20260506203940 76 0 0.0 0.0 0.00 0.00 0.00 67 1003.5
20260506203429 77 23 0.0 0.0 0.00 0.00 0.00 66 1003.4
20260506201858 78 23 0.0 0.0 0.00 0.00 0.00 64 1003.3
20260506200838 78 23 0.0 3.5 0.00 0.00 0.00 63 1003.1
20260506200328 78 23 0.0 5.2 0.00 0.00 0.00 62 1003.0
20260506195817 78 23 3.5 5.2 0.00 0.00 0.00 63 1003.2
20260506195307 78 23 0.9 5.2 0.00 0.00 0.00 63 1003.1
20260506194757 78 23 2.6 5.2 0.00 0.00 0.00 62 1003.2
20260506194248 79 23 0.9 5.2 0.00 0.00 0.00 62 1003.2
20260506193738 79 68 1.7 3.5 0.00 0.00 0.00 61 1003.2
20260506193228 79 23 1.7 3.5 0.00 0.00 0.00 61 1003.2
20260506192718 79 0 0.0 3.5 0.00 0.00 0.00 60 1003.3
20260506191147 79 45 0.0 3.5 0.00 0.00 0.00 61 1002.9
20260506190126 78 45 0.0 5.2 0.00 0.00 0.00 62 1003.3
20260506185106 78 23 0.0 6.1 0.00 0.00 0.00 62 1003.2
20260506184556 78 68 0.9 6.1 0.00 0.00 0.00 61 1003.1
20260506184046 78 23 1.7 6.1 0.00 0.00 0.00 61 1003.3
20260506183536 78 45 0.0 5.2 0.00 0.00 0.00 60 1003.2
20260506183026 77 90 0.0 5.2 0.00 0.00 0.00 61 1003.4
20260506182517 79 45 0.9 5.2 0.00 0.00 0.00 59 1003.4
20260506182006 78 23 1.7 5.2 0.00 0.00 0.00 60 1003.3
20260506181455 79 23 1.7 3.5 0.00 0.00 0.00 58 1003.0
20260506180946 78 90 0.0 1.7 0.00 0.00 0.00 60 1003.5
20260506180437 77 90 0.0 3.5 0.00 0.00 0.00 61 1003.6
20260506175925 77 68 0.0 3.5 0.00 0.00 0.00 61 1003.5
20260506175416 77 68 0.0 1.7 0.00 0.00 0.00 62 1003.7
20260506174905 77 135 0.0 1.7 0.00 0.00 0.00 61 1003.9
20260506173845 77 113 0.0 1.7 0.00 0.00 0.00 61 1004.3
20260506173335 77 113 0.0 1.7 0.00 0.00 0.00 60 1004.4
20260506172825 77 113 0.0 0.0 0.00 0.00 0.00 60 1004.8
20260506172315 78 315 0.0 0.0 0.00 0.00 0.00 60 1005.0
20260506171804 77 45 0.0 0.0 0.00 0.00 0.00 60 1004.7
20260506171255 77 248 0.0 0.0 0.00 0.00 0.00 60 1005.0
20260506170745 77 315 0.0 0.0 0.00 0.00 0.00 62 1005.2
20260506165723 76 248 0.0 1.7 0.00 0.00 0.00 61 1005.5
20260506165215 76 23 0.0 3.5 0.00 0.00 0.00 62 1005.6
20260506164704 76 45 0.0 3.5 0.00 0.00 0.00 62 1005.9
20260506164153 76 23 0.0 3.5 0.00 0.00 0.00 63 1005.9
20260506163643 75 23 0.0 3.5 0.00 0.00 0.00 65 1005.9
20260506162625 74 45 1.7 6.1 0.00 0.00 0.00 65 1005.9
20260506161603 73 23 1.7 7.0 0.00 0.00 0.00 67 1006.0
20260506160544 73 23 3.5 7.0 0.00 0.00 0.00 68 1006.2
20260506155523 73 0 2.6 7.8 0.00 0.00 0.00 69 1006.4
20260506155012 72 23 5.2 7.8 0.00 0.00 0.00 69 1006.3
20260506154502 72 45 6.1 7.8 0.00 0.00 0.00 70 1006.3